| time (UTC) | temp F | wind direction | speed knots | gust knots | rain 1hr in | rain 24hr in | rain mn in | humidity % | barometer mb |
| 20260504044505 | 42 | 235 | 0.9 | 3.5 | 0.00 | 0.00 | 0.00 | 67 | 1012.4 |
| 20260504043035 | 42 | 270 | 0.0 | 2.6 | 0.00 | 0.00 | 0.00 | 67 | 1012.4 |
| 20260504041556 | 42 | 287 | 0.0 | 2.6 | 0.00 | 0.00 | 0.00 | 66 | 1012.4 |
| 20260504040028 | 42 | 214 | 0.9 | 2.6 | 0.00 | 0.00 | 0.00 | 66 | 1012.4 |
| 20260504034550 | 43 | 226 | 0.9 | 1.7 | 0.00 | 0.00 | 0.00 | 65 | 1012.2 |
| 20260504033023 | 43 | 277 | 0.9 | 2.6 | 0.00 | 0.00 | 0.00 | 65 | 1012.3 |
| 20260504031612 | 43 | 235 | 0.0 | 1.7 | 0.00 | 0.00 | 0.00 | 64 | 1012.3 |
| 20260504030020 | 44 | 293 | 0.0 | 1.7 | 0.00 | 0.00 | 0.00 | 64 | 1012.2 |
| 20260504024546 | 44 | 226 | 0.0 | 1.7 | 0.00 | 0.00 | 0.00 | 62 | 1012.3 |
| 20260504023014 | 44 | 225 | 0.9 | 1.7 | 0.00 | 0.00 | 0.00 | 62 | 1012.2 |
| 20260504021537 | 44 | 205 | 0.0 | 1.7 | 0.00 | 0.00 | 0.00 | 62 | 1012.3 |
| 20260504020009 | 44 | 257 | 0.0 | 0.0 | 0.00 | 0.00 | 0.00 | 62 | 1012.2 |
| 20260504014539 | 45 | 224 | 0.0 | 0.9 | 0.00 | 0.00 | 0.00 | 59 | 1012.0 |
| 20260504013008 | 46 | 222 | 0.0 | 1.7 | 0.00 | 0.00 | 0.00 | 57 | 1012.1 |
| 20260504011538 | 46 | 256 | 0.0 | 0.9 | 0.00 | 0.00 | 0.00 | 53 | 1012.0 |
| 20260504010004 | 48 | 256 | 0.0 | 1.7 | 0.00 | 0.00 | 0.00 | 52 | 1011.9 |
| 20260504004531 | 49 | 161 | 0.9 | 5.2 | 0.00 | 0.00 | 0.00 | 49 | 1011.8 |
| 20260504003057 | 49 | 146 | 1.7 | 6.1 | 0.00 | 0.00 | 0.00 | 50 | 1011.7 |
| 20260504001535 | 50 | 291 | 0.0 | 2.6 | 0.00 | 0.00 | 0.00 | 48 | 1011.6 |
| 20260504000006 | 52 | 172 | 0.9 | 5.2 | 0.00 | 0.00 | 0.00 | 46 | 1011.5 |
| 20260503234537 | 53 | 254 | 1.7 | 10.4 | 0.00 | 0.00 | 0.00 | 42 | 1011.5 |
| 20260503233009 | 54 | 305 | 0.9 | 12.2 | 0.00 | 0.00 | 0.00 | 42 | 1011.5 |
| 20260503231550 | 55 | 269 | 2.6 | 8.7 | 0.00 | 0.00 | 0.00 | 40 | 1011.4 |
| 20260503230008 | 55 | 210 | 6.1 | 11.3 | 0.00 | 0.00 | 0.00 | 40 | 1011.4 |
| 20260503224535 | 55 | 214 | 5.2 | 11.3 | 0.00 | 0.00 | 0.00 | 40 | 1011.3 |
| 20260503223100 | 54 | 295 | 3.5 | 10.4 | 0.00 | 0.00 | 0.00 | 41 | 1011.4 |
| 20260503223002 | 54 | 291 | 3.5 | 10.4 | 0.00 | 0.00 | 0.00 | 41 | 1011.3 |
| 20260503221529 | 54 | 271 | 4.3 | 11.3 | 0.00 | 0.00 | 0.00 | 41 | 1011.5 |
| 20260503220052 | 55 | 323 | 3.5 | 13.9 | 0.00 | 0.00 | 0.00 | 40 | 1011.4 |
| 20260503214527 | 56 | 288 | 3.5 | 7.8 | 0.00 | 0.00 | 0.00 | 38 | 1011.5 |
| 20260503213120 | 54 | 334 | 4.3 | 11.3 | 0.00 | 0.00 | 0.00 | 41 | 1011.5 |
| 20260503211524 | 54 | 262 | 5.2 | 12.2 | 0.00 | 0.00 | 0.00 | 40 | 1011.2 |
| 20260503210046 | 54 | 235 | 5.2 | 16.5 | 0.00 | 0.00 | 0.00 | 41 | 1011.4 |
| 20260503204509 | 55 | 298 | 5.2 | 13.0 | 0.00 | 0.00 | 0.00 | 39 | 1011.3 |
| 20260503203041 | 55 | 294 | 6.1 | 15.6 | 0.00 | 0.00 | 0.00 | 40 | 1011.3 |
| 20260503201510 | 55 | 263 | 5.2 | 13.0 | 0.00 | 0.00 | 0.00 | 40 | 1011.3 |
| 20260503200036 | 54 | 250 | 5.2 | 12.2 | 0.00 | 0.00 | 0.00 | 41 | 1011.5 |
| 20260503194557 | 55 | 307 | 3.5 | 13.9 | 0.00 | 0.00 | 0.00 | 40 | 1011.9 |
| 20260503193030 | 54 | 347 | 5.2 | 16.5 | 0.00 | 0.00 | 0.00 | 42 | 1012.0 |
| 20260503191604 | 53 | 344 | 8.7 | 15.6 | 0.00 | 0.00 | 0.00 | 41 | 1012.3 |
| 20260503190037 | 52 | 287 | 4.3 | 12.2 | 0.00 | 0.00 | 0.00 | 41 | 1012.5 |
| 20260503184507 | 53 | 278 | 4.3 | 10.4 | 0.00 | 0.00 | 0.00 | 40 | 1012.5 |
| 20260503183043 | 53 | 302 | 3.5 | 13.9 | 0.00 | 0.00 | 0.00 | 42 | 1012.5 |
| 20260503181507 | 54 | 304 | 7.0 | 13.9 | 0.00 | 0.00 | 0.00 | 41 | 1012.6 |
| 20260503180031 | 53 | 278 | 5.2 | 13.9 | 0.00 | 0.00 | 0.00 | 42 | 1012.7 |
| 20260503174610 | 53 | 269 | 7.0 | 14.8 | 0.00 | 0.00 | 0.00 | 40 | 1012.6 |
| 20260503173024 | 52 | 283 | 7.0 | 17.4 | 0.00 | 0.00 | 0.00 | 41 | 1012.9 |
| 20260503171554 | 53 | 330 | 7.8 | 13.0 | 0.00 | 0.00 | 0.00 | 40 | 1012.7 |
| 20260503150105 | 45 | 217 | 5.2 | 11.3 | 0.00 | 0.00 | 0.00 | 50 | 1014.4 |
| 20260503081552 | 34 | 314 | 2.6 | 6.1 | 0.00 | 0.00 | 0.00 | 77 | 1013.5 |
| 20260503071530 | 35 | 285 | 2.6 | 7.0 | 0.00 | 0.00 | 0.00 | 75 | 1013.2 |
| 20260503054503 | 36 | 316 | 0.0 | 1.7 | 0.00 | 0.00 | 0.00 | 71 | 1013.5 |
| 20260503053035 | 37 | 27 | 0.0 | 2.6 | 0.00 | 0.00 | 0.00 | 71 | 1013.6 |
| 20260503051557 | 37 | 327 | 1.7 | 3.5 | 0.00 | 0.00 | 0.00 | 70 | 1013.6 |
| 20260503050023 | 37 | 27 | 1.7 | 3.5 | 0.00 | 0.00 | 0.00 | 69 | 1013.7 |